Time,TemperatureF,DewpointF,PressureIn,WindDirection,WindDirectionDegrees,WindSpeedMPH,WindSpeedGustMPH,Humidity,HourlyPrecipIn,Conditions,Clouds,dailyrainin,SoftwareType,DateUTC
2013-07-20 00:02:00,74.0,73.0,-100.00,SSE,153,1.0,1.0,97,0.00,,,0.02,,2013-07-20 05:02:00,
2013-07-20 00:12:00,74.0,73.0,-100.00,SSE,167,0.0,0.0,98,0.00,,,0.02,,2013-07-20 05:12:00,
2013-07-20 00:22:00,75.0,74.0,-100.00,ESE,117,3.0,3.0,98,0.00,,,0.02,,2013-07-20 05:22:00,
2013-07-20 00:32:00,75.0,74.0,-100.00,ESE,122,2.0,2.0,98,0.00,,,0.02,,2013-07-20 05:32:00,
2013-07-20 00:52:00,74.0,73.0,-100.00,SSE,163,3.0,3.0,97,0.00,,,0.02,,2013-07-20 05:52:00,
2013-07-20 01:01:00,74.0,73.0,-100.00,East,100,0.0,0.0,98,0.00,,,0.02,,2013-07-20 06:01:00,
2013-07-20 01:11:00,73.0,72.0,-100.00,East,100,0.0,0.0,98,0.00,,,0.02,,2013-07-20 06:11:00,
2013-07-20 01:21:00,73.0,73.0,-100.00,East,100,0.0,0.0,99,0.00,,,0.02,,2013-07-20 06:21:00,
2013-07-20 01:32:00,72.0,72.0,-100.00,East,100,0.0,0.0,99,0.00,,,0.02,,2013-07-20 06:32:00,
2013-07-20 01:43:00,72.0,72.0,-100.00,East,100,0.0,0.0,99,0.00,,,0.02,,2013-07-20 06:43:00,
2013-07-20 01:52:00,72.0,72.0,-100.00,SW,224,2.0,2.0,100,0.00,,,0.02,,2013-07-20 06:52:00,
2013-07-20 02:01:00,72.0,72.0,-100.00,SSW,197,0.0,0.0,100,0.00,,,0.02,,2013-07-20 07:01:00,
2013-07-20 02:12:00,72.0,72.0,-100.00,SSW,197,0.0,0.0,100,0.00,,,0.02,,2013-07-20 07:12:00,
2013-07-20 02:22:00,72.0,72.0,-100.00,South,181,0.0,5.0,100,0.00,,,0.02,,2013-07-20 07:22:00,
2013-07-20 02:33:00,72.0,72.0,-100.00,SSW,195,2.0,2.0,100,0.00,,,0.02,,2013-07-20 07:33:00,
2013-07-20 02:44:00,72.0,72.0,-100.00,South,186,2.0,2.0,100,0.00,,,0.02,,2013-07-20 07:44:00,
2013-07-20 02:53:00,71.0,71.0,-100.00,SSE,162,3.0,3.0,100,0.00,,,0.02,,2013-07-20 07:53:00,
2013-07-20 03:01:00,72.0,72.0,-100.00,SSE,160,3.0,3.0,100,0.00,,,0.02,,2013-07-20 08:01:00,
2013-07-20 03:11:00,72.0,72.0,-100.00,SSE,153,5.0,5.0,100,0.00,,,0.02,,2013-07-20 08:11:00,
2013-07-20 03:22:00,71.0,71.0,-100.00,South,174,3.0,5.0,100,0.00,,,0.02,,2013-07-20 08:22:00,
2013-07-20 03:32:00,71.0,71.0,-100.00,South,177,4.0,5.0,100,0.00,,,0.02,,2013-07-20 08:32:00,
2013-07-20 03:44:00,71.0,71.0,-100.00,South,179,4.0,4.0,100,0.00,,,0.02,,2013-07-20 08:44:00,
2013-07-20 03:52:00,71.0,71.0,-100.00,SSW,198,2.0,2.0,100,0.00,,,0.02,,2013-07-20 08:52:00,
2013-07-20 04:02:00,71.0,71.0,-100.00,South,176,2.0,2.0,100,0.00,,,0.02,,2013-07-20 09:02:00,
2013-07-20 04:11:00,71.0,71.0,-100.00,SSE,160,2.0,3.0,100,0.00,,,0.02,,2013-07-20 09:11:00,
2013-07-20 04:22:00,71.0,71.0,-100.00,SSE,160,3.0,3.0,100,0.00,,,0.02,,2013-07-20 09:22:00,
2013-07-20 04:33:00,71.0,71.0,-100.00,South,186,2.0,2.0,100,0.00,,,0.02,,2013-07-20 09:33:00,
2013-07-20 04:43:00,70.0,70.0,-100.00,SSE,155,0.0,0.0,100,0.00,,,0.02,,2013-07-20 09:43:00,
2013-07-20 04:53:00,70.0,70.0,-100.00,SSE,155,0.0,0.0,100,0.00,,,0.02,,2013-07-20 09:53:00,
2013-07-20 05:01:00,70.0,70.0,-100.00,SSE,155,0.0,0.0,100,0.00,,,0.02,,2013-07-20 10:01:00,
2013-07-20 05:11:00,70.0,70.0,-100.00,SSE,155,0.0,0.0,100,0.00,,,0.02,,2013-07-20 10:11:00,
2013-07-20 05:21:00,69.0,69.0,-100.00,SSE,155,0.0,0.0,100,0.00,,,0.02,,2013-07-20 10:21:00,
2013-07-20 05:32:00,69.0,69.0,-100.00,SSW,210,1.0,1.0,100,0.00,,,0.02,,2013-07-20 10:32:00,
2013-07-20 05:42:00,69.0,69.0,-100.00,SSW,210,1.0,1.0,100,0.00,,,0.02,,2013-07-20 10:42:00,
2013-07-20 05:52:00,68.0,68.0,-100.00,South,191,1.0,3.0,100,0.00,,,0.02,,2013-07-20 10:52:00,
2013-07-20 06:01:00,68.0,68.0,-100.00,South,191,1.0,3.0,100,0.00,,,0.02,,2013-07-20 11:01:00,
2013-07-20 06:11:00,68.0,68.0,-100.00,ESE,111,0.0,0.0,100,0.00,,,0.02,,2013-07-20 11:11:00,
2013-07-20 06:22:00,68.0,68.0,-100.00,SSE,162,1.0,0.0,100,0.00,,,0.02,,2013-07-20 11:22:00,
2013-07-20 06:32:00,68.0,68.0,-100.00,SE,141,0.0,0.0,100,0.00,,,0.02,,2013-07-20 11:32:00,
2013-07-20 06:43:00,68.0,68.0,-100.00,SW,226,0.0,0.0,100,0.00,,,0.02,,2013-07-20 11:43:00,
2013-07-20 06:52:00,67.0,67.0,-100.00,West,274,0.0,0.0,100,0.00,,,0.02,,2013-07-20 11:52:00,
2013-07-20 07:01:00,67.0,67.0,-100.00,West,274,0.0,0.0,100,0.00,,,0.02,,2013-07-20 12:01:00,
2013-07-20 07:11:00,67.0,67.0,-100.00,West,274,0.0,0.0,100,0.00,,,0.02,,2013-07-20 12:11:00,
2013-07-20 07:32:00,68.0,68.0,-100.00,West,274,0.0,0.0,100,0.00,,,0.02,,2013-07-20 12:32:00,
2013-07-20 08:01:00,71.0,71.0,-100.00,West,274,0.0,0.0,100,0.00,,,0.02,,2013-07-20 13:01:00,
2013-07-20 08:11:00,72.0,72.0,-100.00,West,274,0.0,0.0,100,0.00,,,0.02,,2013-07-20 13:11:00,
2013-07-20 08:22:00,72.0,72.0,-100.00,West,274,0.0,0.0,100,0.00,,,0.02,,2013-07-20 13:22:00,
2013-07-20 08:32:00,72.0,72.0,-100.00,West,274,0.0,0.0,100,0.00,,,0.02,,2013-07-20 13:32:00,
2013-07-20 08:43:00,73.0,73.0,-100.00,West,274,0.0,0.0,100,0.00,,,0.02,,2013-07-20 13:43:00,
2013-07-20 08:53:00,73.0,73.0,-100.00,West,274,0.0,0.0,100,0.00,,,0.02,,2013-07-20 13:53:00,
2013-07-20 09:02:00,75.0,75.0,-100.00,SSE,152,0.0,1.0,100,0.00,,,0.02,,2013-07-20 14:02:00,
2013-07-20 09:11:00,75.0,75.0,-100.00,SSE,152,0.0,1.0,100,0.00,,,0.02,,2013-07-20 14:11:00,
2013-07-20 19:14:00,89.0,73.0,-100.00,East,89,0.0,0.0,60,0.00,,,0.02,,2013-07-21 00:14:00,
2013-07-20 20:11:00,90.0,73.0,-100.00,SSE,148,8.0,9.0,58,0.00,,,0.02,,2013-07-21 01:11:00,
2013-07-20 20:35:00,87.0,72.0,-100.00,South,172,6.0,9.0,61,0.00,,,0.02,,2013-07-21 01:35:00,
2013-07-20 20:44:00,-999.0,-99.9,-100.00,SSE,162,7.0,9.0,-999,-99.99,,,-99.99,,2013-07-21 01:44:00,
2013-07-20 21:03:00,80.0,70.0,-100.00,SE,128,8.0,12.0,72,0.00,,,0.02,,2013-07-21 02:03:00,
2013-07-20 21:24:00,80.0,71.0,-100.00,SE,134,6.0,7.0,73,0.00,,,0.02,,2013-07-21 02:24:00,
2013-07-20 21:35:00,79.0,70.0,-100.00,SSE,160,5.0,5.0,74,0.00,,,0.02,,2013-07-21 02:35:00,
2013-07-20 21:43:00,79.0,70.0,-100.00,SE,146,3.0,5.0,75,0.00,,,0.02,,2013-07-21 02:43:00,
2013-07-20 21:54:00,79.0,71.0,-100.00,SSE,166,5.0,5.0,77,0.00,,,0.02,,2013-07-21 02:54:00,
2013-07-20 22:03:00,79.0,72.0,-100.00,SSE,156,4.0,5.0,79,0.00,,,0.02,,2013-07-21 03:03:00,
2013-07-20 22:14:00,78.0,71.0,-100.00,SSE,152,5.0,6.0,79,0.00,,,0.02,,2013-07-21 03:14:00,
2013-07-20 22:24:00,78.0,71.0,-100.00,SSE,155,3.0,4.0,79,0.00,,,0.00,,2013-07-21 03:24:00,
2013-07-20 22:33:00,78.0,71.0,-100.00,South,169,3.0,4.0,80,0.00,,,0.00,,2013-07-21 03:33:00,
2013-07-20 22:44:00,78.0,72.0,-100.00,SSE,159,3.0,3.0,82,0.00,,,0.00,,2013-07-21 03:44:00,
2013-07-20 22:54:00,77.0,71.0,-100.00,SSE,160,4.0,4.0,83,0.00,,,0.00,,2013-07-21 03:54:00,
2013-07-20 23:01:00,77.0,72.0,-100.00,SSE,159,3.0,3.0,85,0.00,,,0.00,,2013-07-21 04:01:00,
2013-07-20 23:11:00,77.0,72.0,-100.00,SSE,155,4.0,4.0,86,0.00,,,0.00,,2013-07-21 04:11:00,
2013-07-20 23:22:00,77.0,73.0,-100.00,SSE,150,3.0,3.0,87,0.00,,,0.00,,2013-07-21 04:22:00,
2013-07-20 23:32:00,76.0,72.0,-100.00,SSE,156,3.0,4.0,88,0.00,,,0.00,,2013-07-21 04:32:00,
2013-07-20 23:43:00,76.0,73.0,-100.00,SSE,150,3.0,3.0,90,0.00,,,0.00,,2013-07-21 04:43:00,
2013-07-20 23:53:00,76.0,73.0,-100.00,SSE,166,3.0,3.0,90,0.00,,,0.00,,2013-07-21 04:53:00,